timestamp,surface_pressure_avg,surface_temp_avg,battery_voltage,lat,long
2019-01-08 00:00:00+00:00,345.9429,1.2,12.97,47.84626,-54.09684
2019-01-08 00:10:00+00:00,353.7496,1.2,12.89,47.84626,-54.09684
2019-01-08 00:20:00+00:00,347.4713,1.2,13.05,47.84626,-54.09684
2019-01-08 00:30:00+00:00,340.0213,1.2,13.05,47.84626,-54.09684
2019-01-08 00:40:00+00:00,345.188,1.2,13.05,47.84626,-54.09684
2019-01-08 00:50:00+00:00,348.348,1.33,13.05,47.84626,-54.09684
2019-01-08 01:00:00+00:00,340.0847,1.4,12.97,47.84626,-54.09684
2019-01-08 01:10:00+00:00,330.358,1.4,12.89,47.84626,-54.09684
2019-01-08 01:20:00+00:00,333.8429,1.4,12.97,47.84626,-54.09684
2019-01-08 01:30:00+00:00,333.1196,1.4,12.97,47.84626,-54.09684
2019-01-08 01:40:00+00:00,324.4946,1.4,13.05,47.84626,-54.09684
2019-01-08 01:50:00+00:00,325.1779,1.45,13.05,47.84626,-54.09684
2019-01-08 02:00:00+00:00,330.1763,1.41,12.97,47.84626,-54.09684
2019-01-08 02:10:00+00:00,325.823,1.36,12.89,47.84626,-54.09684
2019-01-08 02:20:00+00:00,325.9513,1.2,12.97,47.84626,-54.09684
2019-01-08 02:30:00+00:00,335.4197,1.2,12.97,47.84626,-54.09684
2019-01-08 02:40:00+00:00,333.2663,1.1,12.97,47.84626,-54.09684
2019-01-08 02:50:00+00:00,320.6297,1.15,13.05,47.84626,-54.09684
2019-01-08 03:00:00+00:00,322.2263,1.17,12.97,47.84626,-54.09684
2019-01-08 03:10:00+00:00,328.6663,1.19,12.89,47.84626,-54.09684
2019-01-08 03:20:00+00:00,322.9313,1.12,12.97,47.84626,-54.09684
2019-01-08 03:30:00+00:00,315.463,1.1,12.97,47.84626,-54.09684
2019-01-08 03:40:00+00:00,314.0947,1.1,12.97,47.84626,-54.09684
2019-01-08 03:50:00+00:00,310.1229,1.1,12.97,47.84626,-54.09684
2019-01-08 04:00:00+00:00,298.5947,1.1,12.89,47.84626,-54.09684
2019-01-08 04:10:00+00:00,291.6414,1.1,12.89,47.84626,-54.09684
2019-01-08 04:20:00+00:00,283.5214,1.0,12.97,47.84626,-54.09684
2019-01-08 04:30:00+00:00,269.7964,1.0,12.97,47.84626,-54.09684
2019-01-08 04:40:00+00:00,262.3564,1.0,12.97,47.84626,-54.09684
2019-01-08 04:50:00+00:00,261.4747,1.1,12.97,47.84626,-54.09684
2019-01-08 05:00:00+00:00,253.553,1.2,12.89,47.84626,-54.09684
2019-01-08 05:10:00+00:00,246.0297,1.1,12.81,47.84626,-54.09684
2019-01-08 05:20:00+00:00,243.9897,1.1,12.97,47.84626,-54.09684
2019-01-08 05:30:00+00:00,236.0731,1.1,12.97,47.84626,-54.09684
2019-01-08 05:50:00+00:00,224.4297,1.1,12.97,47.84626,-54.09684
2019-01-08 06:00:00+00:00,222.1815,1.09,12.89,47.84626,-54.09684
2019-01-08 06:10:00+00:00,213.3897,1.06,12.81,47.84626,-54.09684
2019-01-08 06:20:00+00:00,212.3197,1.04,12.97,47.84626,-54.09684
2019-01-08 06:30:00+00:00,220.5182,1.19,12.97,47.84626,-54.09684
2019-01-08 06:40:00+00:00,219.5414,1.2,12.97,47.84626,-54.09684
2019-01-08 06:50:00+00:00,215.5948,1.1,12.97,47.84626,-54.09684
2019-01-08 07:00:00+00:00,222.4414,0.97,12.89,47.84626,-54.09684
2019-01-08 07:10:00+00:00,227.8948,1.02,12.81,47.84626,-54.09684
2019-01-08 07:20:00+00:00,222.2431,1.0,12.97,47.84626,-54.09684
2019-01-08 07:30:00+00:00,221.3031,0.99,12.97,47.84626,-54.09684
2019-01-08 07:40:00+00:00,229.0947,1.0,12.97,47.84626,-54.09684
2019-01-08 07:50:00+00:00,234.1431,1.1,12.97,47.84626,-54.09684
2019-01-08 08:00:00+00:00,236.3631,1.2,12.89,47.84626,-54.09684
2019-01-08 08:10:00+00:00,243.5714,1.2,12.81,47.84626,-54.09684
2019-01-08 08:20:00+00:00,253.8614,1.1,12.89,47.84626,-54.09684
2019-01-08 08:30:00+00:00,258.4014,1.27,12.89,47.84626,-54.09684
2019-01-08 08:40:00+00:00,267.1948,1.27,12.97,47.84626,-54.09684
2019-01-08 08:50:00+00:00,275.8864,1.05,12.97,47.84626,-54.09684
2019-01-08 09:00:00+00:00,282.203,1.26,12.89,47.84626,-54.09684
2019-01-08 09:10:00+00:00,284.6797,1.3,12.81,47.84626,-54.09684
2019-01-08 09:20:00+00:00,290.8397,1.2,12.89,47.84626,-54.09684
2019-01-08 09:30:00+00:00,294.9031,1.1,12.89,47.84626,-54.09684
2019-01-08 09:40:00+00:00,293.9381,0.9,12.97,47.84626,-54.09684
2019-01-08 09:50:00+00:00,298.1647,0.9,12.97,47.84626,-54.09684
2019-01-08 10:00:00+00:00,311.423,1.0,12.81,47.84626,-54.09684
2019-01-08 10:10:00+00:00,318.6296,1.05,12.81,47.84626,-54.09684
2019-01-08 10:20:00+00:00,317.1313,1.0,12.89,47.84626,-54.09684
2019-01-08 10:30:00+00:00,328.173,1.0,12.89,47.84626,-54.09684
2019-01-08 10:40:00+00:00,338.833,1.04,12.89,47.84626,-54.09684
2019-01-08 10:50:00+00:00,342.2079,0.9,12.97,47.84626,-54.09684
2019-01-08 11:00:00+00:00,345.4829,0.9,12.81,47.84626,-54.09684
2019-01-08 11:10:00+00:00,361.6696,0.9,12.81,47.84626,-54.09684
2019-01-08 11:20:00+00:00,369.5912,0.9,12.89,47.84626,-54.09684
2019-01-08 11:30:00+00:00,363.798,0.89,12.89,47.84626,-54.09684
2019-01-08 11:40:00+00:00,371.7596,0.89,12.89,47.84626,-54.09684
2019-01-08 11:50:00+00:00,388.8946,0.93,12.97,47.84626,-54.09684
2019-01-08 12:00:00+00:00,386.4612,0.87,12.81,47.84626,-54.09684
2019-01-08 12:10:00+00:00,381.7579,0.8,12.81,47.84626,-54.09684
2019-01-08 12:20:00+00:00,394.4846,0.89,12.89,47.84626,-54.09684
2019-01-08 12:30:00+00:00,404.4978,0.9,12.89,47.84626,-54.09684
2019-01-08 12:40:00+00:00,394.4396,0.89,12.97,47.84626,-54.09684
2019-01-08 12:50:00+00:00,392.8846,0.9,12.97,47.84626,-54.09684
2019-01-08 13:00:00+00:00,402.0012,0.97,12.97,47.84626,-54.09684
2019-01-08 13:10:00+00:00,399.0945,0.9,12.89,47.84626,-54.09684
2019-01-08 13:20:00+00:00,394.1912,0.88,13.05,47.84626,-54.09684
2019-01-08 13:30:00+00:00,398.6529,0.9,13.05,47.84626,-54.09684
2019-01-08 13:40:00+00:00,396.3446,0.89,13.13,47.84626,-54.09684
2019-01-08 13:50:00+00:00,387.6129,0.83,13.21,47.84626,-54.09684
2019-01-08 14:00:00+00:00,391.2079,0.89,13.13,47.84626,-54.09684
2019-01-08 14:10:00+00:00,394.2228,0.9,13.05,47.84626,-54.09684
2019-01-08 14:20:00+00:00,386.9478,0.87,13.13,47.84626,-54.09684
2019-01-08 14:30:00+00:00,384.153,0.88,13.13,47.84626,-54.09684
2019-01-08 14:40:00+00:00,390.8763,0.93,13.21,47.84626,-54.09684
2019-01-08 14:50:00+00:00,393.3695,0.9,13.21,47.84626,-54.09684
2019-01-08 15:00:00+00:00,385.3962,0.89,13.13,47.84626,-54.09684
2019-01-08 15:10:00+00:00,381.6562,0.87,13.05,47.84626,-54.09684
2019-01-08 15:20:00+00:00,379.0745,0.9,13.21,47.84626,-54.09684
2019-01-08 15:30:00+00:00,370.4279,0.83,13.29,47.84626,-54.09684
2019-01-08 15:40:00+00:00,366.5679,0.86,13.37,47.84626,-54.09684
2019-01-08 15:50:00+00:00,359.4196,0.9,13.44,47.84626,-54.09684
2019-01-08 16:00:00+00:00,341.838,0.8,13.44,47.84626,-54.09684
2019-01-08 16:10:00+00:00,333.8796,0.81,13.44,47.84626,-54.09684
2019-01-08 16:20:00+00:00,334.5679,0.9,13.6,47.84626,-54.09684
2019-01-08 16:30:00+00:00,322.6462,0.84,13.68,47.84626,-54.09684
2019-01-08 16:40:00+00:00,307.0597,0.8,13.68,47.84626,-54.09684
2019-01-08 16:50:00+00:00,304.9047,0.89,13.92,47.84626,-54.09684
2019-01-08 17:00:00+00:00,296.9664,0.9,13.84,47.84626,-54.09684
2019-01-08 17:10:00+00:00,274.2297,0.8,13.76,47.84626,-54.09684
2019-01-08 17:20:00+00:00,262.1231,0.84,13.84,47.84626,-54.09684
2019-01-08 17:30:00+00:00,258.713,0.92,14.24,47.84626,-54.09684
2019-01-08 17:40:00+00:00,242.7447,0.9,14.08,47.84626,-54.09684
2019-01-08 17:50:00+00:00,226.3748,0.8,13.92,47.84626,-54.09684
2019-01-08 18:00:00+00:00,228.0631,0.8,13.76,47.84626,-54.09684
2019-01-08 18:10:00+00:00,230.2481,0.86,13.6,47.84626,-54.09684
2019-01-08 18:20:00+00:00,223.8331,0.8,13.6,47.84626,-54.09684
2019-01-08 18:30:00+00:00,222.3531,0.79,13.68,47.84626,-54.09684
2019-01-08 18:40:00+00:00,223.2064,0.7,13.68,47.84626,-54.09684
2019-01-08 18:50:00+00:00,225.8548,0.7,13.68,47.84626,-54.09684
2019-01-08 19:00:00+00:00,230.6297,1.0,13.44,47.84626,-54.09684
2019-01-08 19:10:00+00:00,226.9081,0.93,13.29,47.84626,-54.09684
2019-01-08 19:20:00+00:00,217.9231,0.8,13.29,47.84626,-54.09684
2019-01-08 19:30:00+00:00,219.7948,0.97,13.29,47.84626,-54.09684
2019-01-08 19:40:00+00:00,228.5064,1.0,13.29,47.84626,-54.09684
2019-01-08 19:50:00+00:00,227.7131,1.06,13.29,47.84626,-54.09684
2019-01-08 20:00:00+00:00,225.4648,1.0,13.13,47.84626,-54.09684
2019-01-08 20:10:00+00:00,235.3014,1.1,13.05,47.84626,-54.09684
2019-01-08 20:20:00+00:00,246.9881,1.06,13.13,47.84626,-54.09684
2019-01-08 20:30:00+00:00,248.0364,0.85,13.13,47.84626,-54.09684
2019-01-08 20:40:00+00:00,251.0697,0.8,13.13,47.84626,-54.09684
2019-01-08 20:50:00+00:00,260.0164,0.8,13.13,47.84626,-54.09684
2019-01-08 21:00:00+00:00,262.5548,0.8,13.05,47.84626,-54.09684
2019-01-08 21:10:00+00:00,259.1331,0.8,12.97,47.84626,-54.09684
2019-01-08 21:20:00+00:00,263.5364,0.8,13.05,47.84626,-54.09684
2019-01-08 21:30:00+00:00,272.4381,0.84,13.05,47.84626,-54.09684
2019-01-08 21:40:00+00:00,276.2631,0.7,13.05,47.84626,-54.09684
2019-01-08 21:50:00+00:00,275.7864,0.7,13.05,47.84626,-54.09684
2019-01-08 22:00:00+00:00,278.6648,0.7,12.97,47.84626,-54.09684
2019-01-08 22:10:00+00:00,281.0114,0.76,12.89,47.84626,-54.09684
2019-01-08 22:20:00+00:00,285.8931,1.0,12.97,47.84626,-54.09684
2019-01-08 22:30:00+00:00,292.2881,1.0,12.97,47.84626,-54.09684
2019-01-08 22:40:00+00:00,297.443,0.9,13.05,47.84626,-54.09684
2019-01-08 22:50:00+00:00,298.0731,0.9,13.05,47.84626,-54.09684
2019-01-08 23:00:00+00:00,300.7347,0.9,12.97,47.84626,-54.09684
2019-01-08 23:10:00+00:00,302.6813,0.8,12.89,47.84626,-54.09684
2019-01-08 23:20:00+00:00,307.0696,0.8,12.97,47.84626,-54.09684
2019-01-08 23:30:00+00:00,312.3431,0.8,12.97,47.84626,-54.09684
2019-01-08 23:40:00+00:00,320.2163,0.8,12.97,47.84626,-54.09684
2019-01-08 23:50:00+00:00,320.553,0.79,12.97,47.84626,-54.09684
